METEOR 2-12 DEB, 59996

Orbit data source: Space-Track

METEOR 2-12 DEB, 59996 is space debris in LEO originally from a launch on Wed, 06 Feb 1985 UTC launched from the Plesetsk Missile And Space Complex (PKMTR). Debris objects in space refer to the collection of defunct objects orbiting the Earth. Examples of debris include non-operational satellites, rocket bodies, and fragments generated from explosions, collisions, or faulty payload assembly.

Loading next visibility...
Identifier
59996, 1985-013G
Orbit
LEO
Country
Flag of CISCIS
Related business
Manufacturer
Unknown
Mission
Spacecraft
Bus & Motor
Unknown
Mass
Unknown
Launch date (UTC)
1985-02-06 (41 years ago)
Launch vehicle
Unknown
Launch site
Plesetsk Missile And Space Complex (PKMTR)
Object type
Payload
Rocket body
Debris
Shape & HBR
Unknown shape, 0.1 m
Radar Cross Section
Small (<0.1 m²)

Expand to show TLE details & history
Last TLE update: 2 weeks ago

TLE from 2 weeks ago
0 METEOR 2-12 DEB
1 59996U 85013G   26160.07530388  .00002979  00000-0  18419-2 0  9996
2 59996  82.5287 275.9775 0014569 149.7449 331.7350 14.04954342616312
Epoch: 2026-06-09T01:48Z
TLE epoch observation values (Epoch: 2026-06-09T01:48:26.255Z)
Latitude
57.90855°
Longitude
159.40825°
Altitude
877.133 km
Speed
7.424 km/s
True Right ascension
05h 35m 52s
True Declination
57° 45' 22"
Sunlit
Object was in daylight at epoch
Visualization orbit readout
Latitude
Unknown
Longitude
Unknown
Altitude
Unknown
Speed
Unknown
Apparent Right ascension
Unknown
Apparent Declination
Unknown
Sunlit
N/A
Visualization observer readout
Local Sidereal Time
00:27:51
Azimuth
Unknown
Elevation
Unknown
Doppler factor
Unknown
Orbital elements
Apogee altitude
884.379 km
Perigee altitude
863.248 km
Semi-major axis
7,251.95 km
Eccentricity
0.00146
Inclination
82.5287°
RAAN
275.9775°
Arg. of periapsis
149.7449°
True anomaly
331.65581°
Mean anomaly
331.735°
Eccentric anomaly
331.69542°
Mean motion
3.51448 °/min
Orbital period
102.43 mins
BSTAR
0.0018419
Loading maneuver chart data...
Computing Atmospheric mass density...
Loading historical data...
Loading historical data...
Loading historical data...
Loading historical data...
Loading historical data...
Loading historical data...
Loading historical data...

Documentation

Showing up to 5 results
|